This is the latest recevied weather packets stored in our database for station/object OK2JCZ-6. If no packets are shown the sender has not sent any weather packets the latest 10 day(s).
| Time | Temp. | Humidity | Pressure | Rain* | Wind** | Luminosity | Snow |
|---|---|---|---|---|---|---|---|
| 1777741479 | 21.67° C | 24% | 1019.2 hPa | 0 mm | - | - | - |
| 1777741178 | 22.22° C | 24% | 1019.2 hPa | 0 mm | - | - | - |
| 1777739978 | 22.78° C | 22% | 1019.4 hPa | 0 mm | - | - | - |
| 1777739678 | 22.78° C | 23% | 1019.4 hPa | 0 mm | - | - | - |
| 1777738778 | 25° C | 21% | 1019.6 hPa | 0 mm | - | - | - |
| 1777738478 | 25° C | 20% | 1019.7 hPa | 0 mm | - | - | - |
| 1777736978 | 23.33° C | 21% | 1020 hPa | 0 mm | - | - | - |
| 1777736678 | 23.33° C | 22% | 1020.1 hPa | 0 mm | - | - | - |
| 1777736378 | 23.89° C | 22% | 1020.1 hPa | 0 mm | - | - | - |
| 1777736078 | 23.89° C | 21% | 1020.2 hPa | 0 mm | - | - | - |
| 1777735778 | 25° C | 21% | 1020.2 hPa | 0 mm | - | - | - |
| 1777734878 | 25° C | 21% | 1020.3 hPa | 0 mm | - | - | - |
| 1777734578 | 26.11° C | 20% | 1020.4 hPa | 0 mm | - | - | - |
| 1777734278 | 26.11° C | 20% | 1020.4 hPa | 0 mm | - | - | - |
| 1777733378 | 24.44° C | 21% | 1020.6 hPa | 0 mm | - | - | - |
| 1777733078 | 24.44° C | 21% | 1020.6 hPa | 0 mm | - | - | - |
| 1777732778 | 24.44° C | 20% | 1020.6 hPa | 0 mm | - | - | - |
| 1777730078 | 24.44° C | 22% | 1021.1 hPa | 0 mm | - | - | - |
| 1777729478 | 23.89° C | 21% | 1021.2 hPa | 0 mm | - | - | - |
| 1777728578 | 25° C | 22% | 1021.3 hPa | 0 mm | - | - | - |
| 1777727978 | 25° C | 22% | 1021.4 hPa | 0 mm | - | - | - |
| 1777727678 | 25° C | 21% | 1021.5 hPa | 0 mm | - | - | - |
| 1777727378 | 25° C | 23% | 1021.6 hPa | 0 mm | - | - | - |
| 1777727078 | 25° C | 22% | 1021.7 hPa | 0 mm | - | - | - |
| 1777726778 | 25° C | 22% | 1021.7 hPa | 0 mm | - | - | - |
* Rain latest hour (hover to see other rain measurements)
** Current wind speed in m/s (hover to see current wind gust speed)